When you browse on this site, cookies collect data to enhance your experience and personalize the content and advertising you see.
Visit our Privacy Policy to learn more. By continuing to use the site, you agree to this use of cookies and data.
  • In Hungary
  • List of Countries
  • For 7 days
  • Water Temperature
  • Satellite Maps
  • Weather Map
  • News
  • Weather Widgets
  • user-avatar
    Login

    Hourly Weather Chociszewo

    Today, 26 May, Sunday

    Time Temperature Precipitation Wind Pressure Humidity
    00:00 +9°C° 0 mm 2 mps 753 mmHg 86%
    01:00 +8°C° 0 mm 2 mps 753 mmHg 87%
    02:00 +8°C° 0 mm 2 mps 753 mmHg 88%
    03:00 +8°C° 0 mm 2 mps 753 mmHg 88%
    04:00 +8°C° 0 mm 2 mps 753 mmHg 88%
    05:00 +10°C° 0 mm 3 mps 753 mmHg 82%
    06:00 +11°C° 0 mm 3 mps 753 mmHg 76%
    07:00 +12°C° 0 mm 3 mps 753 mmHg 70%
    08:00 +14°C° 0 mm 4 mps 753 mmHg 65%
    09:00 +15°C° 0 mm 4 mps 752 mmHg 60%
    10:00 +18°C° 0 mm 4 mps 752 mmHg 55%
    11:00 +19°C° 0 mm 4 mps 752 mmHg 51%
    12:00 +20°C° 0 mm 5 mps 751 mmHg 48%
    13:00 +21°C° 0 mm 5 mps 751 mmHg 44%
    14:00 +21°C° 0 mm 5 mps 751 mmHg 47%
    15:00 +21°C° 0 mm 5 mps 750 mmHg 50%
    16:00 +21°C° 0 mm 5 mps 750 mmHg 53%
    17:00 +20°C° 0 mm 4 mps 750 mmHg 57%
    18:00 +20°C° 0 mm 3 mps 750 mmHg 62%
    19:00 +19°C° 0 mm 2 mps 749 mmHg 66%
    20:00 +18°C° 0 mm 2 mps 749 mmHg 69%
    21:00 +17°C° 0 mm 2 mps 749 mmHg 73%
    22:00 +16°C° 0 mm 2 mps 749 mmHg 76%
    23:00 +16°C° 0 mm 2 mps 749 mmHg 78%

    Tomorrow, 27 May, Monday

    Time Temperature Precipitation Wind Pressure Humidity
    00:00 +16°C° 0 mm 3 mps 749 mmHg 79%
    01:00 +15°C° 0 mm 4 mps 748 mmHg 81%
    02:00 +15°C° 0 mm 4 mps 748 mmHg 80%
    03:00 +14°C° 0 mm 4 mps 748 mmHg 79%
    04:00 +14°C° 0 mm 4 mps 748 mmHg 79%
    05:00 +15°C° 0 mm 4 mps 748 mmHg 76%
    06:00 +16°C° 0 mm 5 mps 748 mmHg 73%
    07:00 +17°C° 0 mm 5 mps 748 mmHg 69%
    08:00 +20°C° 0 mm 5 mps 748 mmHg 66%
    09:00 +21°C° 0 mm 6 mps 748 mmHg 63%
    10:00 +22°C° 0 mm 6 mps 748 mmHg 60%
    11:00 +22°C° 0.5 mm 6 mps 748 mmHg 61%
    12:00 +22°C° 0.5 mm 6 mps 748 mmHg 63%
    13:00 +22°C° 0.5 mm 6 mps 748 mmHg 65%
    14:00 +22°C° 0.1 mm 5 mps 748 mmHg 61%
    15:00 +22°C° 0.1 mm 5 mps 748 mmHg 57%
    16:00 +22°C° 0.1 mm 4 mps 748 mmHg 53%
    17:00 +20°C° 0 mm 4 mps 748 mmHg 58%
    18:00 +19°C° 0 mm 3 mps 748 mmHg 62%
    19:00 +18°C° 0 mm 3 mps 749 mmHg 67%
    20:00 +16°C° 0 mm 2 mps 749 mmHg 72%
    21:00 +15°C° 0 mm 2 mps 749 mmHg 76%
    22:00 +14°C° 0 mm 2 mps 749 mmHg 81%
    23:00 +14°C° 0 mm 2 mps 749 mmHg 80%

    Day after tomorrow, 28 May, Tuesday

    Time Temperature Precipitation Wind Pressure Humidity
    00:00 +14°C° 0 mm 2 mps 748 mmHg 80%
    01:00 +14°C° 0 mm 2 mps 748 mmHg 79%
    02:00 +13°C° 0.2 mm 2 mps 748 mmHg 82%
    03:00 +13°C° 0.2 mm 2 mps 747 mmHg 85%
    04:00 +13°C° 0.2 mm 2 mps 747 mmHg 87%
    05:00 +13°C° 1.2 mm 2 mps 747 mmHg 89%
    06:00 +11°C° 1.2 mm 3 mps 746 mmHg 91%
    07:00 +11°C° 1.2 mm 3 mps 746 mmHg 92%
    08:00 +11°C° 2.2 mm 3 mps 746 mmHg 93%
    09:00 +11°C° 2.2 mm 3 mps 746 mmHg 93%
    10:00 +11°C° 2.2 mm 3 mps 746 mmHg 93%
    11:00 +11°C° 2.3 mm 3 mps 746 mmHg 93%
    12:00 +11°C° 2.3 mm 3 mps 746 mmHg 93%
    13:00 +11°C° 2.3 mm 3 mps 746 mmHg 93%
    14:00 +11°C° 0.6 mm 3 mps 746 mmHg 91%
    15:00 +12°C° 0.6 mm 2 mps 746 mmHg 90%
    16:00 +12°C° 0.6 mm 2 mps 746 mmHg 89%
    17:00 +12°C° 0 mm 2 mps 746 mmHg 89%
    18:00 +12°C° 0 mm 1 mps 746 mmHg 90%
    19:00 +12°C° 0 mm 1 mps 747 mmHg 90%
    20:00 +12°C° 0 mm 1 mps 747 mmHg 91%
    21:00 +11°C° 0 mm 1 mps 747 mmHg 93%
    22:00 +10°C° 0 mm 1 mps 747 mmHg 94%
    23:00 +10°C° 0 mm 1 mps 747 mmHg 94%

    29 May, Wednesday

    Time Temperature Precipitation Wind Pressure Humidity
    00:00 +10°C° 0 mm 1 mps 747 mmHg 94%
    01:00 +9°C° 0 mm 1 mps 748 mmHg 94%
    02:00 +9°C° 0 mm 1 mps 748 mmHg 93%
    03:00 +9°C° 0 mm 1 mps 748 mmHg 93%
    04:00 +9°C° 0 mm 1 mps 748 mmHg 92%
    05:00 +10°C° 0 mm 1 mps 748 mmHg 89%
    06:00 +12°C° 0 mm 2 mps 748 mmHg 87%
    07:00 +13°C° 0 mm 2 mps 749 mmHg 84%
    08:00 +15°C° 0.2 mm 2 mps 749 mmHg 79%
    09:00 +16°C° 0.2 mm 2 mps 749 mmHg 75%
    10:00 +17°C° 0.2 mm 3 mps 749 mmHg 70%
    11:00 +18°C° 0.5 mm 3 mps 749 mmHg 69%
    12:00 +18°C° 0.5 mm 3 mps 750 mmHg 68%
    13:00 +18°C° 0.5 mm 4 mps 750 mmHg 67%
    14:00 +18°C° 0.5 mm 4 mps 750 mmHg 70%
    15:00 +16°C° 0.5 mm 5 mps 751 mmHg 73%
    16:00 +16°C° 0.5 mm 5 mps 751 mmHg 76%
    17:00 +14°C° 0.1 mm 5 mps 751 mmHg 78%
    18:00 +13°C° 0.1 mm 4 mps 752 mmHg 79%
    19:00 +12°C° 0.1 mm 4 mps 752 mmHg 81%
    20:00 +11°C° 0 mm 4 mps 753 mmHg 81%
    21:00 +10°C° 0 mm 3 mps 754 mmHg 81%
    22:00 +8°C° 0 mm 3 mps 754 mmHg 82%
    23:00 +8°C° 0 mm 2 mps 755 mmHg 83%

    30 May, Thursday

    Time Temperature Precipitation Wind Pressure Humidity
    00:00 +7°C° 0 mm 2 mps 755 mmHg 84%
    01:00 +7°C° 0 mm 2 mps 756 mmHg 85%
    02:00 +6°C° 0 mm 2 mps 756 mmHg 87%
    03:00 +6°C° 0 mm 2 mps 756 mmHg 88%
    04:00 +5°C° 0 mm 2 mps 757 mmHg 90%
    05:00 +8°C° 0 mm 1 mps 757 mmHg 82%
    06:00 +10°C° 0 mm 1 mps 758 mmHg 74%
    07:00 +12°C° 0 mm 1 mps 758 mmHg 66%
    08:00 +13°C° 0 mm 1 mps 758 mmHg 60%
    09:00 +15°C° 0 mm 2 mps 758 mmHg 54%
    10:00 +16°C° 0 mm 2 mps 758 mmHg 47%
    11:00 +17°C° 0 mm 2 mps 758 mmHg 47%
    12:00 +17°C° 0 mm 2 mps 758 mmHg 46%
    13:00 +18°C° 0 mm 2 mps 757 mmHg 46%
    14:00 +18°C° 0 mm 2 mps 757 mmHg 46%
    15:00 +18°C° 0 mm 2 mps 757 mmHg 47%
    16:00 +19°C° 0 mm 3 mps 757 mmHg 48%
    17:00 +18°C° 0.1 mm 2 mps 756 mmHg 56%
    18:00 +17°C° 0.1 mm 2 mps 756 mmHg 64%
    19:00 +16°C° 0.1 mm 2 mps 756 mmHg 72%
    20:00 +15°C° 0 mm 2 mps 756 mmHg 75%
    21:00 +13°C° 0 mm 3 mps 756 mmHg 78%
    22:00 +12°C° 0 mm 3 mps 756 mmHg 80%
    23:00 +12°C° 0 mm 3 mps 756 mmHg 79%

    31 May, Friday

    Time Temperature Precipitation Wind Pressure Humidity
    00:00 +13°C° 0 mm 4 mps 755 mmHg 78%
    01:00 +13°C° 0 mm 4 mps 755 mmHg 77%
    02:00 +13°C° 0 mm 4 mps 755 mmHg 81%
    03:00 +13°C° 0 mm 4 mps 754 mmHg 85%
    04:00 +12°C° 0 mm 4 mps 754 mmHg 89%
    05:00 +12°C° 0.8 mm 5 mps 754 mmHg 90%
    06:00 +13°C° 0.8 mm 5 mps 755 mmHg 92%
    07:00 +13°C° 0.8 mm 5 mps 755 mmHg 94%
    08:00 +13°C° 0.4 mm 5 mps 756 mmHg 91%
    09:00 +12°C° 0.4 mm 5 mps 756 mmHg 89%
    10:00 +12°C° 0.4 mm 5 mps 757 mmHg 86%
    11:00 +14°C° 0 mm 5 mps 758 mmHg 72%
    12:00 +15°C° 0 mm 5 mps 758 mmHg 58%
    13:00 +17°C° 0 mm 5 mps 759 mmHg 43%
    14:00 +17°C° 0 mm 5 mps 759 mmHg 42%
    15:00 +18°C° 0 mm 4 mps 760 mmHg 40%
    16:00 +18°C° 0 mm 4 mps 760 mmHg 39%
    17:00 +17°C° 0 mm 3 mps 761 mmHg 45%
    18:00 +16°C° 0 mm 2 mps 761 mmHg 50%
    19:00 +15°C° 0 mm 1 mps 761 mmHg 56%
    20:00 +13°C° 0 mm 1 mps 761 mmHg 58%
    21:00 +12°C° 0 mm 1 mps 762 mmHg 61%
    22:00 +9°C° 0 mm 0 mps 762 mmHg 63%
    23:00 +10°C° 0 mm 1 mps 762 mmHg 63%
    Show more